TimeCST,TemperatureF,Dew PointF,Humidity,Sea Level PressureIn,VisibilityMPH,Wind Direction,Wind SpeedMPH,Gust SpeedMPH,PrecipitationIn,Events,Conditions,WindDirDegrees,DateUTC
12:16 AM,75.2,69.8,83,29.91,10.0,South,15.0,-,N/A,,Overcast,180,2012-12-15 06:16:00
12:52 AM,73.9,69.1,85,29.90,10.0,South,15.0,-,N/A,,Mostly Cloudy,170,2012-12-15 06:52:00
1:52 AM,73.0,68.0,84,29.90,10.0,South,10.4,-,N/A,,Scattered Clouds,170,2012-12-15 07:52:00
2:52 AM,73.0,68.0,84,29.88,10.0,SSE,16.1,-,N/A,,Clear,160,2012-12-15 08:52:00
3:52 AM,73.0,68.0,84,29.87,10.0,South,15.0,-,N/A,,Clear,170,2012-12-15 09:52:00
4:52 AM,73.0,68.0,84,29.85,10.0,South,18.4,-,N/A,,Clear,170,2012-12-15 10:52:00
5:52 AM,73.0,68.0,84,29.85,10.0,South,15.0,-,N/A,,Clear,170,2012-12-15 11:52:00
6:52 AM,73.0,69.1,87,29.87,10.0,South,16.1,-,N/A,,Clear,170,2012-12-15 12:52:00
7:52 AM,73.0,69.1,87,29.88,7.0,South,15.0,-,N/A,,Clear,170,2012-12-15 13:52:00
8:15 AM,73.4,69.8,88,29.87,7.0,SSE,15.0,-,N/A,,Clear,160,2012-12-15 14:15:00
8:52 AM,75.9,70.0,82,29.88,9.0,South,17.3,24.2,N/A,,Clear,170,2012-12-15 14:52:00
9:52 AM,81.0,69.1,67,29.89,10.0,South,23.0,29.9,N/A,,Clear,170,2012-12-15 15:52:00
10:52 AM,82.0,69.1,65,29.91,10.0,South,19.6,26.5,N/A,,Scattered Clouds,190,2012-12-15 16:52:00
10:59 AM,82.4,69.8,66,29.90,10.0,SSW,18.4,26.5,N/A,,Mostly Cloudy,200,2012-12-15 16:59:00
11:52 AM,84.0,68.0,58,29.87,10.0,South,24.2,31.1,N/A,,Scattered Clouds,180,2012-12-15 17:52:00
12:52 PM,84.0,66.9,56,29.84,10.0,South,23.0,-,N/A,,Mostly Cloudy,180,2012-12-15 18:52:00
1:52 PM,84.9,66.9,55,29.81,10.0,South,17.3,-,N/A,,Mostly Cloudy,170,2012-12-15 19:52:00
2:52 PM,84.9,66.9,55,29.80,10.0,South,15.0,26.5,N/A,,Overcast,170,2012-12-15 20:52:00
3:52 PM,82.0,68.0,62,29.80,10.0,SSE,16.1,-,N/A,,Mostly Cloudy,160,2012-12-15 21:52:00
4:52 PM,80.1,68.0,67,29.80,9.0,SSE,12.7,-,N/A,,Clear,150,2012-12-15 22:52:00
5:52 PM,78.1,68.0,71,29.82,10.0,SSE,13.8,-,N/A,,Clear,160,2012-12-15 23:52:00
6:52 PM,75.9,69.1,79,29.83,8.0,SSE,12.7,-,N/A,,Clear,160,2012-12-16 00:52:00
7:52 PM,75.9,70.0,82,29.86,8.0,South,16.1,-,N/A,,Overcast,170,2012-12-16 01:52:00
8:52 PM,75.9,71.1,85,29.86,9.0,SSE,15.0,-,N/A,,Overcast,160,2012-12-16 02:52:00
9:41 PM,75.2,71.6,89,29.86,8.0,South,12.7,-,N/A,,Overcast,170,2012-12-16 03:41:00
9:52 PM,75.9,71.1,85,29.86,8.0,South,12.7,-,N/A,,Overcast,170,2012-12-16 03:52:00
10:52 PM,75.0,71.1,87,29.85,8.0,South,12.7,-,N/A,,Overcast,170,2012-12-16 04:52:00
11:30 PM,75.2,71.6,89,29.83,8.0,SSE,12.7,-,N/A,,Overcast,160,2012-12-16 05:30:00
11:52 PM,73.9,70.0,87,29.83,8.0,SSE,10.4,-,N/A,,Mostly Cloudy,160,2012-12-16 05:52:00